Weather History for Big Delta, AK

Change the Weather History Date:

Tuesday, September 24, 2013

  Actual Average Record
Temperature  
Mean Temperature 30 °F -  
Max Temperature 37 °F 45 °F 62 °F (1997)
Min Temperature 23 °F 28 °F 19 °F (1996)
Degree Days  
Heating Degree Days 35    
Moisture  
Dew Point 23 °F    
Average Humidity 72    
Maximum Humidity 88    
Minimum Humidity 44    
Precipitation  
Precipitation 0.01 in - - ()
Sea Level Pressure  
Sea Level Pressure 30.00 in    
Wind  
Wind Speed 8 mph (SE)    
Max Wind Speed 23 mph    
Max Gust Speed 36 mph    
Visibility 10 miles    
Events Snow    
Averages and records for this station are not official NWS values.
T = Trace of Precipitation, MM = Missing Value Source: NWS Daily Summary

Daily Weather History Graph

Daily Weather History Graph

Search for Another Location

Airport:

Trip Planner

Search our weather history database for the weather conditions in past years. The results will help you decide how hot, cold, wet, or windy it might be!

Date:

Astronomy

Sep. 24, 2013 Rise Set
Actual Time 7:32 AM AKDT 7:34 PM AKDT
Civil Twilight 6:45 AM AKDT 8:22 PM AKDT
Nautical Twilight 5:47 AM AKDT 9:19 PM AKDT
Astronomical Twilight 4:42 AM AKDT 10:23 PM AKDT
Moon 9:03 PM AKDT (9/24) 2:51 PM AKDT (9/24)
Length of Visible Light 13h 36m
Length of Day
12h 02m
Waning Gibbous, 72% of the Moon is Illuminated
Sep 24
Waning Gibbous
Sep 26
Last Quarter
Oct 4
New
Oct 11
First Quarter
Oct 18
Full

Hourly Weather History & Observations

Time (AKDT) Temp. Windchill Dew Point Humidity Pressure Visibility Wind Dir Wind Speed Gust Speed Precip Events Conditions
12:53 AM 28.9 °F 22.8 °F 24.1 °F 82% 29.96 in 10.0 mi West 5.8 mph - N/A   Overcast
1:41 AM 28.4 °F 21.2 °F 24.8 °F 86% 29.90 in 10.0 mi West 6.9 mph - N/A   Overcast
1:53 AM 28.9 °F 22.8 °F 24.1 °F 82% 29.98 in 10.0 mi WNW 5.8 mph - N/A   Overcast
2:35 AM 28.4 °F 23.3 °F 24.8 °F 86% 29.92 in 10.0 mi WNW 4.6 mph - N/A   Overcast
2:53 AM 28.9 °F 21.9 °F 24.1 °F 82% 30.00 in 10.0 mi West 6.9 mph - N/A   Overcast
3:53 AM 28.0 °F 21.7 °F 24.1 °F 85% 30.02 in 10.0 mi West 5.8 mph - N/A   Overcast
4:18 AM 28.4 °F 21.2 °F 24.8 °F 86% 29.95 in 10.0 mi West 6.9 mph - N/A   Overcast
4:44 AM 28.4 °F 22.2 °F 24.8 °F 86% 29.96 in 10.0 mi West 5.8 mph - N/A   Overcast
4:51 AM 28.4 °F 23.3 °F 24.8 °F 86% 29.96 in 10.0 mi West 4.6 mph - N/A   Overcast
4:53 AM 28.0 °F 22.8 °F 24.1 °F 85% 30.04 in 10.0 mi West 4.6 mph - N/A   Overcast
5:53 AM 27.0 °F 23.0 °F 23.0 °F 85% 30.05 in 10.0 mi WSW 3.5 mph - N/A   Overcast
6:53 AM 26.1 °F 21.9 °F 23.0 °F 88% 30.06 in 9.0 mi SSW 3.5 mph - 0.00 in Snow Light Snow
7:53 AM 25.0 °F 19.3 °F 21.0 °F 85% 30.08 in 10.0 mi SW 4.6 mph - 0.00 in   Scattered Clouds
8:53 AM 24.1 °F 19.7 °F 21.0 °F 88% 30.09 in 10.0 mi South 3.5 mph - N/A   Scattered Clouds
9:53 AM 27.0 °F - 21.9 °F 81% 30.10 in 10.0 mi Calm Calm - N/A   Scattered Clouds
10:53 AM 32.0 °F 28.7 °F 21.9 °F 66% 30.09 in 10.0 mi NE 3.5 mph - 0.01 in   Scattered Clouds
11:53 AM 33.1 °F 25.5 °F 21.0 °F 61% 30.08 in 10.0 mi East 9.2 mph - N/A   Scattered Clouds
12:53 PM 34.0 °F 25.0 °F 21.0 °F 59% 30.07 in 10.0 mi ENE 12.7 mph - N/A   Scattered Clouds
1:53 PM 35.1 °F 26.4 °F 21.9 °F 59% 30.06 in 10.0 mi East 12.7 mph - N/A   Scattered Clouds
2:53 PM 36.0 °F 27.5 °F 24.1 °F 62% 30.06 in 10.0 mi East 12.7 mph - N/A   Scattered Clouds
3:53 PM 37.0 °F 27.4 °F 23.0 °F 57% 30.03 in 10.0 mi East 17.3 mph - N/A   Scattered Clouds
4:53 PM 37.9 °F 28.2 °F 23.0 °F 55% 30.02 in 10.0 mi East 18.4 mph 23.0 mph N/A   Scattered Clouds
5:53 PM 37.9 °F 29.2 °F 23.0 °F 55% 29.99 in 10.0 mi East 15.0 mph - N/A   Scattered Clouds
6:53 PM 36.0 °F 26.7 °F 24.1 °F 62% 29.96 in 10.0 mi East 15.0 mph - N/A   Scattered Clouds
7:53 PM 35.1 °F 25.9 °F 24.1 °F 64% 29.95 in 10.0 mi East 13.8 mph - N/A   Mostly Cloudy
8:53 PM 35.1 °F 26.9 °F 24.1 °F 64% 29.94 in 10.0 mi East 11.5 mph - N/A   Mostly Cloudy
9:53 PM 34.0 °F 23.8 °F 24.1 °F 67% 29.90 in 10.0 mi East 16.1 mph - N/A   Clear
10:53 PM 35.1 °F 23.3 °F 25.0 °F 67% 29.86 in 10.0 mi East 23.0 mph 35.7 mph N/A   Clear
11:53 PM 36.0 °F 24.4 °F 25.0 °F 64% 29.82 in 10.0 mi ESE 23.0 mph 29.9 mph N/A   Clear